TimeCST,TemperatureF,Dew PointF,Humidity,Sea Level PressureIn,VisibilityMPH,Wind Direction,Wind SpeedMPH,Gust SpeedMPH,PrecipitationIn,Events,Conditions,WindDirDegrees,DateUTC
12:10 AM,32.0,19.4,60,30.64,10.0,North,24.2,32.2,N/A,,Overcast,10,2013-11-12 06:10:00
12:30 AM,32.0,19.4,60,30.65,10.0,North,21.9,31.1,N/A,,Overcast,10,2013-11-12 06:30:00
12:50 AM,32.0,17.6,55,30.67,10.0,NNE,20.7,27.6,N/A,,Overcast,20,2013-11-12 06:50:00
1:10 AM,32.0,15.8,51,30.68,10.0,North,15.0,26.5,N/A,,Overcast,10,2013-11-12 07:10:00
1:30 AM,30.2,15.8,55,30.68,10.0,North,17.3,28.8,N/A,,Mostly Cloudy,10,2013-11-12 07:30:00
1:50 AM,30.2,14.0,51,30.69,10.0,North,18.4,27.6,N/A,,Partly Cloudy,10,2013-11-12 07:50:00
2:10 AM,28.4,14.0,55,30.70,10.0,North,13.8,23.0,N/A,,Clear,10,2013-11-12 08:10:00
2:30 AM,28.4,14.0,55,30.71,10.0,North,17.3,24.2,N/A,,Clear,10,2013-11-12 08:30:00
2:50 AM,28.4,14.0,55,30.72,10.0,North,13.8,25.3,N/A,,Clear,10,2013-11-12 08:50:00
3:10 AM,28.4,14.0,55,30.73,10.0,North,15.0,20.7,N/A,,Clear,360,2013-11-12 09:10:00
3:30 AM,28.4,14.0,55,30.74,10.0,North,15.0,24.2,N/A,,Clear,10,2013-11-12 09:30:00
3:50 AM,28.4,14.0,55,30.75,10.0,North,16.1,25.3,N/A,,Clear,10,2013-11-12 09:50:00
4:10 AM,28.4,15.8,59,30.74,10.0,North,17.3,21.9,N/A,,Clear,10,2013-11-12 10:10:00
4:30 AM,26.6,15.8,64,30.74,10.0,North,16.1,-,N/A,,Clear,360,2013-11-12 10:30:00
4:50 AM,26.6,15.8,64,30.76,10.0,North,12.7,-,N/A,,Clear,360,2013-11-12 10:50:00
5:10 AM,26.6,15.8,64,30.77,10.0,North,13.8,19.6,N/A,,Clear,360,2013-11-12 11:10:00
5:30 AM,26.6,15.8,64,30.77,10.0,North,15.0,-,N/A,,Clear,10,2013-11-12 11:30:00
5:50 AM,26.6,15.8,64,30.78,10.0,North,15.0,24.2,N/A,,Clear,360,2013-11-12 11:50:00
6:10 AM,26.6,15.8,64,30.79,10.0,North,17.3,25.3,N/A,,Clear,10,2013-11-12 12:10:00
6:30 AM,26.6,14.0,59,30.79,10.0,North,12.7,-,N/A,,Clear,10,2013-11-12 12:30:00
6:50 AM,26.6,15.8,64,30.81,10.0,North,12.7,19.6,N/A,,Clear,10,2013-11-12 12:50:00
7:10 AM,26.6,14.0,59,30.81,10.0,NNE,12.7,19.6,N/A,,Clear,20,2013-11-12 13:10:00
7:30 AM,26.6,14.0,59,30.81,10.0,NNE,15.0,21.9,N/A,,Clear,20,2013-11-12 13:30:00
7:50 AM,28.4,14.0,55,30.82,10.0,North,15.0,21.9,N/A,,Clear,10,2013-11-12 13:50:00
8:10 AM,26.6,14.0,59,30.82,10.0,NNE,20.7,-,N/A,,Clear,30,2013-11-12 14:10:00
8:30 AM,28.4,14.0,55,30.83,10.0,NNE,23.0,28.8,N/A,,Clear,20,2013-11-12 14:30:00
8:50 AM,28.4,14.0,55,30.84,10.0,NNE,18.4,-,N/A,,Clear,20,2013-11-12 14:50:00
9:10 AM,28.4,10.4,47,30.85,10.0,North,19.6,-,N/A,,Clear,10,2013-11-12 15:10:00
9:30 AM,30.2,10.4,44,30.86,10.0,NNE,17.3,-,N/A,,Clear,30,2013-11-12 15:30:00
9:50 AM,30.2,10.4,44,30.86,10.0,North,17.3,-,N/A,,Clear,10,2013-11-12 15:50:00
10:10 AM,32.0,8.6,38,30.86,10.0,North,18.4,21.9,N/A,,Clear,10,2013-11-12 16:10:00
10:30 AM,32.0,10.4,41,30.86,10.0,NNE,15.0,20.7,N/A,,Clear,20,2013-11-12 16:30:00
10:50 AM,32.0,8.6,38,30.86,10.0,NE,15.0,21.9,N/A,,Clear,40,2013-11-12 16:50:00
11:10 AM,32.0,8.6,38,30.86,10.0,NNE,16.1,-,N/A,,Clear,30,2013-11-12 17:10:00
11:30 AM,32.0,8.6,38,30.85,10.0,NNE,12.7,21.9,N/A,,Clear,30,2013-11-12 17:30:00
11:50 AM,33.8,8.6,35,30.84,10.0,NNE,13.8,17.3,N/A,,Clear,30,2013-11-12 17:50:00
12:10 PM,35.6,8.6,33,30.83,10.0,NE,13.8,19.6,N/A,,Clear,40,2013-11-12 18:10:00
12:30 PM,35.6,8.6,33,30.82,10.0,North,12.7,18.4,N/A,,Clear,10,2013-11-12 18:30:00
12:50 PM,35.6,5.0,28,30.81,10.0,NE,12.7,-,N/A,,Clear,40,2013-11-12 18:50:00
1:10 PM,35.6,6.8,30,30.80,10.0,NE,8.1,-,N/A,,Clear,50,2013-11-12 19:10:00
1:30 PM,37.4,6.8,28,30.78,10.0,NE,10.4,-,N/A,,Clear,50,2013-11-12 19:30:00
1:50 PM,37.4,5.0,26,30.77,10.0,NE,6.9,-,N/A,,Clear,40,2013-11-12 19:50:00
2:10 PM,37.4,5.0,26,30.76,10.0,NNE,11.5,-,N/A,,Clear,20,2013-11-12 20:10:00
2:30 PM,37.4,5.0,26,30.75,10.0,NNE,8.1,-,N/A,,Clear,20,2013-11-12 20:30:00
2:50 PM,37.4,5.0,26,30.75,10.0,NE,8.1,-,N/A,,Clear,40,2013-11-12 20:50:00
3:10 PM,37.4,3.2,24,30.75,10.0,NE,8.1,-,N/A,,Clear,40,2013-11-12 21:10:00
3:30 PM,39.2,6.8,26,30.74,10.0,NNE,6.9,-,N/A,,Clear,20,2013-11-12 21:30:00
3:50 PM,37.4,5.0,26,30.74,10.0,NNE,8.1,-,N/A,,Clear,30,2013-11-12 21:50:00
4:10 PM,37.4,1.4,22,30.74,10.0,NNE,6.9,-,N/A,,Clear,30,2013-11-12 22:10:00
4:30 PM,37.4,5.0,26,30.73,10.0,NE,6.9,-,N/A,,Clear,50,2013-11-12 22:30:00
4:50 PM,37.4,5.0,26,30.73,10.0,NE,4.6,-,N/A,,Clear,40,2013-11-12 22:50:00
5:10 PM,35.6,6.8,30,30.72,10.0,ENE,4.6,-,N/A,,Clear,70,2013-11-12 23:10:00
5:30 PM,35.6,8.6,33,30.72,10.0,East,4.6,-,N/A,,Clear,90,2013-11-12 23:30:00
5:50 PM,32.0,12.2,44,30.71,10.0,ESE,4.6,-,N/A,,Clear,110,2013-11-12 23:50:00
6:10 PM,32.0,14.0,48,30.71,8.0,ESE,5.8,-,N/A,,Clear,120,2013-11-13 00:10:00
6:30 PM,30.2,14.0,51,30.71,10.0,SE,5.8,-,N/A,,Clear,130,2013-11-13 00:30:00
6:50 PM,30.2,12.2,47,30.72,10.0,SE,6.9,-,N/A,,Clear,140,2013-11-13 00:50:00
7:10 PM,28.4,12.2,51,30.71,10.0,SSE,6.9,-,N/A,,Clear,150,2013-11-13 01:10:00
7:30 PM,26.6,14.0,59,30.71,10.0,South,5.8,-,N/A,,Clear,170,2013-11-13 01:30:00
7:50 PM,26.6,14.0,59,30.70,10.0,South,6.9,-,N/A,,Clear,180,2013-11-13 01:50:00
8:10 PM,28.4,14.0,55,30.70,10.0,South,5.8,-,N/A,,Clear,180,2013-11-13 02:10:00
8:30 PM,26.6,14.0,59,30.69,10.0,South,6.9,-,N/A,,Clear,190,2013-11-13 02:30:00
8:50 PM,26.6,14.0,59,30.69,10.0,South,6.9,-,N/A,,Clear,190,2013-11-13 02:50:00
9:10 PM,24.8,14.0,64,30.70,10.0,SSW,5.8,-,N/A,,Clear,200,2013-11-13 03:10:00
9:30 PM,24.8,14.0,64,30.69,10.0,South,6.9,-,N/A,,Clear,190,2013-11-13 03:30:00
9:50 PM,24.8,14.0,64,30.70,10.0,SSW,5.8,-,N/A,,Clear,200,2013-11-13 03:50:00
10:10 PM,24.8,14.0,64,30.70,10.0,South,6.9,-,N/A,,Clear,190,2013-11-13 04:10:00
10:30 PM,24.8,14.0,64,30.69,10.0,South,6.9,-,N/A,,Clear,180,2013-11-13 04:30:00
10:50 PM,24.8,14.0,64,30.68,10.0,South,6.9,-,N/A,,Clear,180,2013-11-13 04:50:00
11:10 PM,23.0,14.0,68,30.68,10.0,SSW,5.8,-,N/A,,Clear,210,2013-11-13 05:10:00
11:30 PM,23.0,14.0,68,30.68,10.0,SSW,5.8,-,N/A,,Clear,210,2013-11-13 05:30:00
11:50 PM,23.0,14.0,68,30.68,10.0,SW,8.1,-,N/A,,Clear,220,2013-11-13 05:50:00